Time,TemperatureF,DewpointF,PressureIn,WindDirection,WindDirectionDegrees,WindSpeedMPH,WindSpeedGustMPH,Humidity,HourlyPrecipIn,Conditions,Clouds,dailyrainin,SolarRadiationWatts/m^2,SoftwareType,DateUTC
2013-01-06 00:00:00,18.9,15.1,30.03,NW,313,2.0,3.0,85,0.00,,---,0.00,0.00,VWS V14.01,2013-01-06 06:00:00,
2013-01-06 00:10:00,19.0,15.2,30.03,NW,313,1.0,5.0,85,0.00,,---,0.00,0.00,VWS V14.01,2013-01-06 06:10:00,
2013-01-06 00:15:00,18.9,15.1,30.03,WNW,299,2.0,5.0,85,0.00,,---,0.00,0.00,VWS V14.01,2013-01-06 06:15:00,
2013-01-06 00:20:00,18.8,15.1,30.03,WNW,299,2.0,3.0,85,0.00,,---,0.00,0.00,VWS V14.01,2013-01-06 06:20:00,
2013-01-06 00:25:00,18.6,14.6,30.04,WNW,288,1.0,3.0,84,0.00,,---,0.00,0.00,VWS V14.01,2013-01-06 06:25:00,
2013-01-06 00:30:00,18.4,14.6,30.04,WNW,300,2.0,4.0,85,0.00,,---,0.00,0.00,VWS V14.01,2013-01-06 06:30:00,
2013-01-06 00:40:00,18.1,14.4,30.04,NW,318,3.0,6.0,85,0.00,,---,0.00,0.00,VWS V14.01,2013-01-06 06:40:00,
2013-01-06 00:45:00,18.1,14.4,30.05,NW,319,9.0,9.0,85,0.00,,---,0.00,0.00,VWS V14.01,2013-01-06 06:45:00,
2013-01-06 00:50:00,18.0,14.3,30.05,WSW,251,2.0,9.0,85,0.00,,---,0.00,0.00,VWS V14.01,2013-01-06 06:50:00,
2013-01-06 00:55:00,17.9,14.2,30.05,NW,309,2.0,6.0,85,0.00,,---,0.00,0.00,VWS V14.01,2013-01-06 06:55:00,
2013-01-06 01:00:00,17.9,14.2,30.05,NW,309,1.0,5.0,85,0.00,,---,0.00,0.00,VWS V14.01,2013-01-06 07:00:00,
2013-01-06 01:10:00,17.5,13.8,30.05,WNW,302,1.0,5.0,85,0.00,,---,0.00,0.00,VWS V14.01,2013-01-06 07:10:00,
2013-01-06 01:15:00,17.4,13.7,30.06,WNW,299,2.0,4.0,85,0.00,,---,0.00,0.00,VWS V14.01,2013-01-06 07:15:00,
2013-01-06 01:20:00,17.3,13.8,30.06,NW,305,2.0,5.0,86,0.00,,---,0.00,0.00,VWS V14.01,2013-01-06 07:20:00,
2013-01-06 01:25:00,17.2,13.7,30.06,NW,305,0.0,3.0,86,0.00,,---,0.00,0.00,VWS V14.01,2013-01-06 07:25:00,
2013-01-06 01:30:00,17.0,13.5,30.06,WNW,296,2.0,4.0,86,0.00,,---,0.00,0.00,VWS V14.01,2013-01-06 07:30:00,
2013-01-06 01:35:00,16.9,13.4,30.06,WNW,297,1.0,4.0,86,0.00,,---,0.00,0.00,VWS V14.01,2013-01-06 07:35:00,
2013-01-06 01:40:00,16.8,13.4,30.06,WNW,298,1.0,3.0,86,0.00,,---,0.00,0.00,VWS V14.01,2013-01-06 07:40:00,
2013-01-06 01:45:00,16.6,13.1,30.06,West,267,0.0,2.0,86,0.00,,---,0.00,0.00,VWS V14.01,2013-01-06 07:45:00,
2013-01-06 01:50:00,16.4,12.9,30.06,West,267,1.0,2.0,86,0.00,,---,0.00,0.00,VWS V14.01,2013-01-06 07:50:00,
2013-01-06 01:55:00,16.2,12.8,30.06,West,267,1.0,2.0,86,0.00,,---,0.00,0.00,VWS V14.01,2013-01-06 07:55:00,
2013-01-06 02:00:00,15.9,12.5,30.06,West,267,0.0,3.0,86,0.00,,---,0.00,0.00,VWS V14.01,2013-01-06 08:00:00,
2013-01-06 02:05:00,15.7,12.3,30.07,West,267,1.0,2.0,86,0.00,,---,0.00,0.00,VWS V14.01,2013-01-06 08:05:00,
2013-01-06 02:10:00,15.5,12.1,30.07,WSW,257,2.0,4.0,86,0.00,,---,0.00,0.00,VWS V14.01,2013-01-06 08:10:00,
2013-01-06 02:15:00,15.3,11.9,30.07,WSW,257,1.0,2.0,86,0.00,,---,0.00,0.00,VWS V14.01,2013-01-06 08:15:00,
2013-01-06 02:20:00,15.1,11.7,30.08,West,275,3.0,3.0,86,0.00,,---,0.00,0.00,VWS V14.01,2013-01-06 08:20:00,
2013-01-06 02:25:00,15.0,11.6,30.08,West,275,0.0,3.0,86,0.00,,---,0.00,0.00,VWS V14.01,2013-01-06 08:25:00,
2013-01-06 02:30:00,14.8,11.4,30.08,WNW,284,0.0,4.0,86,0.00,,---,0.00,0.00,VWS V14.01,2013-01-06 08:30:00,
2013-01-06 02:35:00,14.7,11.3,30.09,WSW,256,0.0,3.0,86,0.00,,---,0.00,0.00,VWS V14.01,2013-01-06 08:35:00,
2013-01-06 02:40:00,14.6,11.2,30.09,West,264,1.0,3.0,86,0.00,,---,0.00,0.00,VWS V14.01,2013-01-06 08:40:00,
2013-01-06 02:45:00,14.6,11.4,30.09,West,279,0.0,3.0,87,0.00,,---,0.00,0.00,VWS V14.01,2013-01-06 08:45:00,
2013-01-06 02:50:00,14.7,11.5,30.09,WNW,296,3.0,4.0,87,0.00,,---,0.00,0.00,VWS V14.01,2013-01-06 08:50:00,
2013-01-06 02:55:00,14.8,11.6,30.09,NW,307,2.0,4.0,87,0.00,,---,0.00,0.00,VWS V14.01,2013-01-06 08:55:00,
2013-01-06 03:00:00,15.0,11.8,30.09,NW,313,2.0,6.0,87,0.00,,---,0.00,0.00,VWS V14.01,2013-01-06 09:00:00,
2013-01-06 03:05:00,15.1,11.9,30.09,NW,316,1.0,5.0,87,0.00,,---,0.00,0.00,VWS V14.01,2013-01-06 09:05:00,
2013-01-06 03:10:00,15.2,12.0,30.09,NW,316,0.0,3.0,87,0.00,,---,0.00,0.00,VWS V14.01,2013-01-06 09:10:00,
2013-01-06 03:15:00,15.2,12.0,30.09,NW,313,0.0,4.0,87,0.00,,---,0.00,0.00,VWS V14.01,2013-01-06 09:15:00,
2013-01-06 03:20:00,15.2,12.0,30.09,WNW,294,0.0,2.0,87,0.00,,---,0.00,0.00,VWS V14.01,2013-01-06 09:20:00,
2013-01-06 03:25:00,15.3,12.1,30.10,West,268,2.0,5.0,87,0.00,,---,0.00,0.00,VWS V14.01,2013-01-06 09:25:00,
2013-01-06 03:30:00,15.3,12.1,30.10,West,268,2.0,3.0,87,0.00,,---,0.00,0.00,VWS V14.01,2013-01-06 09:30:00,
2013-01-06 03:35:00,15.4,12.2,30.11,West,270,1.0,4.0,87,0.00,,---,0.00,0.00,VWS V14.01,2013-01-06 09:35:00,
2013-01-06 03:40:00,15.5,12.6,30.11,NW,304,1.0,5.0,88,0.00,,---,0.00,0.00,VWS V14.01,2013-01-06 09:40:00,
2013-01-06 03:45:00,15.6,12.4,30.11,NW,306,3.0,4.0,87,0.00,,---,0.00,0.00,VWS V14.01,2013-01-06 09:45:00,
2013-01-06 03:50:00,15.8,12.9,30.11,NW,306,2.0,4.0,88,0.00,,---,0.00,0.00,VWS V14.01,2013-01-06 09:50:00,
2013-01-06 03:55:00,15.9,13.0,30.11,WNW,286,2.0,3.0,88,0.00,,---,0.00,0.00,VWS V14.01,2013-01-06 09:55:00,
2013-01-06 04:00:00,16.0,13.1,30.11,WNW,284,1.0,4.0,88,0.00,,---,0.00,0.00,VWS V14.01,2013-01-06 10:00:00,
2013-01-06 04:10:00,16.1,13.2,30.12,West,277,3.0,4.0,88,0.00,,---,0.00,0.00,VWS V14.01,2013-01-06 10:10:00,
2013-01-06 04:15:00,16.2,13.0,30.12,WSW,246,2.0,3.0,87,0.00,,---,0.00,0.00,VWS V14.01,2013-01-06 10:15:00,
2013-01-06 04:20:00,16.2,13.0,30.12,West,269,1.0,5.0,87,0.00,,---,0.00,0.00,VWS V14.01,2013-01-06 10:20:00,
2013-01-06 04:25:00,16.3,13.1,30.12,NW,315,2.0,6.0,87,0.00,,---,0.00,0.00,VWS V14.01,2013-01-06 10:25:00,
2013-01-06 04:30:00,16.3,13.4,30.12,NNW,334,1.0,5.0,88,0.00,,---,0.00,0.00,VWS V14.01,2013-01-06 10:30:00,
2013-01-06 04:35:00,16.3,13.4,30.12,WNW,300,3.0,6.0,88,0.00,,---,0.00,0.00,VWS V14.01,2013-01-06 10:35:00,
2013-01-06 04:40:00,16.3,13.4,30.12,NW,304,2.0,5.0,88,0.00,,---,0.00,0.00,VWS V14.01,2013-01-06 10:40:00,
2013-01-06 04:45:00,16.3,13.1,30.12,WNW,301,2.0,5.0,87,0.00,,---,0.00,0.00,VWS V14.01,2013-01-06 10:45:00,
2013-01-06 04:50:00,16.2,13.0,30.12,WSW,252,3.0,3.0,87,0.00,,---,0.00,0.00,VWS V14.01,2013-01-06 10:50:00,
2013-01-06 04:55:00,16.2,13.0,30.11,WSW,238,0.0,4.0,87,0.00,,---,0.00,0.00,VWS V14.01,2013-01-06 10:55:00,
2013-01-06 05:00:00,16.1,12.9,30.11,WSW,238,0.0,5.0,87,0.00,,---,0.00,0.00,VWS V14.01,2013-01-06 11:00:00,
2013-01-06 05:05:00,16.0,12.8,30.11,WSW,238,1.0,1.0,87,0.00,,---,0.00,0.00,VWS V14.01,2013-01-06 11:05:00,
2013-01-06 05:10:00,15.8,12.6,30.12,WSW,238,3.0,3.0,87,0.00,,---,0.00,0.00,VWS V14.01,2013-01-06 11:10:00,
2013-01-06 05:15:00,15.6,12.4,30.12,WSW,238,0.0,3.0,87,0.00,,---,0.00,0.00,VWS V14.01,2013-01-06 11:15:00,
2013-01-06 05:20:00,15.4,12.2,30.12,WSW,238,0.0,1.0,87,0.00,,---,0.00,0.00,VWS V14.01,2013-01-06 11:20:00,
2013-01-06 05:25:00,15.1,11.9,30.13,WSW,238,0.0,0.0,87,0.00,,---,0.00,0.00,VWS V14.01,2013-01-06 11:25:00,
2013-01-06 05:30:00,14.9,11.7,30.13,WSW,238,0.0,2.0,87,0.00,,---,0.00,0.00,VWS V14.01,2013-01-06 11:30:00,
2013-01-06 05:35:00,14.6,11.4,30.14,WSW,238,2.0,4.0,87,0.00,,---,0.00,0.00,VWS V14.01,2013-01-06 11:35:00,
2013-01-06 05:40:00,14.3,11.1,30.14,WSW,238,2.0,2.0,87,0.00,,---,0.00,0.00,VWS V14.01,2013-01-06 11:40:00,
2013-01-06 05:45:00,14.1,10.9,30.14,NW,315,1.0,6.0,87,0.00,,---,0.00,0.00,VWS V14.01,2013-01-06 11:45:00,
2013-01-06 05:50:00,13.9,10.8,30.15,WNW,299,0.0,3.0,87,0.00,,---,0.00,0.00,VWS V14.01,2013-01-06 11:50:00,
2013-01-06 05:55:00,13.7,10.6,30.15,WNW,299,3.0,3.0,87,0.00,,---,0.00,0.00,VWS V14.01,2013-01-06 11:55:00,
2013-01-06 06:00:00,13.5,10.4,30.16,NW,314,2.0,6.0,87,0.00,,---,0.00,0.00,VWS V14.01,2013-01-06 12:00:00,
2013-01-06 06:05:00,13.4,10.3,30.16,NW,315,9.0,9.0,87,0.00,,---,0.00,0.00,VWS V14.01,2013-01-06 12:05:00,
2013-01-06 06:10:00,13.2,10.1,30.16,NW,314,3.0,9.0,87,0.00,,---,0.00,0.00,VWS V14.01,2013-01-06 12:10:00,
2013-01-06 06:15:00,13.1,9.7,30.17,NW,319,2.0,5.0,86,0.00,,---,0.00,0.00,VWS V14.01,2013-01-06 12:15:00,
2013-01-06 06:20:00,13.0,9.4,30.17,NW,317,3.0,5.0,85,0.00,,---,0.00,0.00,VWS V14.01,2013-01-06 12:20:00,
2013-01-06 06:25:00,12.9,9.2,30.17,NW,317,3.0,3.0,85,0.00,,---,0.00,0.00,VWS V14.01,2013-01-06 12:25:00,
2013-01-06 06:30:00,12.7,8.8,30.17,NW,317,0.0,3.0,84,0.00,,---,0.00,0.00,VWS V14.01,2013-01-06 12:30:00,
2013-01-06 06:35:00,12.6,8.4,30.18,NW,317,0.0,3.0,83,0.00,,---,0.00,0.00,VWS V14.01,2013-01-06 12:35:00,
2013-01-06 06:40:00,12.4,8.2,30.18,NW,317,1.0,3.0,83,0.00,,---,0.00,0.00,VWS V14.01,2013-01-06 12:40:00,
2013-01-06 06:45:00,12.3,8.1,30.18,NW,317,1.0,4.0,83,0.00,,---,0.00,0.00,VWS V14.01,2013-01-06 12:45:00,
2013-01-06 06:50:00,12.2,7.8,30.18,NW,304,0.0,3.0,82,0.00,,---,0.00,0.00,VWS V14.01,2013-01-06 12:50:00,
2013-01-06 06:55:00,12.1,7.7,30.18,NW,304,1.0,2.0,82,0.00,,---,0.00,0.00,VWS V14.01,2013-01-06 12:55:00,
2013-01-06 07:00:00,11.9,7.5,30.19,NW,304,0.0,2.0,82,0.00,,---,0.00,0.00,VWS V14.01,2013-01-06 13:00:00,
2013-01-06 07:05:00,11.7,7.0,30.19,NW,304,0.0,1.0,81,0.00,,---,0.00,0.00,VWS V14.01,2013-01-06 13:05:00,
2013-01-06 07:10:00,11.5,6.8,30.20,NW,304,0.0,1.0,81,0.00,,---,0.00,0.00,VWS V14.01,2013-01-06 13:10:00,
2013-01-06 07:15:00,11.3,6.6,30.20,WNW,303,1.0,1.0,81,0.00,,---,0.00,0.00,VWS V14.01,2013-01-06 13:15:00,
2013-01-06 07:20:00,11.1,6.4,30.20,WNW,303,0.0,2.0,81,0.00,,---,0.00,0.00,VWS V14.01,2013-01-06 13:20:00,
2013-01-06 07:25:00,10.9,6.2,30.20,WNW,303,0.0,2.0,81,0.00,,---,0.00,0.00,VWS V14.01,2013-01-06 13:25:00,
2013-01-06 07:30:00,10.8,6.1,30.20,WNW,301,0.0,2.0,81,0.00,,---,0.00,0.00,VWS V14.01,2013-01-06 13:30:00,
2013-01-06 07:35:00,10.7,6.0,30.21,WNW,294,0.0,2.0,81,0.00,,---,0.00,0.00,VWS V14.01,2013-01-06 13:35:00,
2013-01-06 07:40:00,10.5,5.8,30.21,WNW,293,0.0,2.0,81,0.00,,---,0.00,0.00,VWS V14.01,2013-01-06 13:40:00,
2013-01-06 07:45:00,10.3,5.6,30.22,WNW,294,0.0,1.0,81,0.00,,---,0.00,0.00,VWS V14.01,2013-01-06 13:45:00,
2013-01-06 07:50:00,10.2,5.5,30.22,WNW,294,0.0,3.0,81,0.00,,---,0.00,5.00,VWS V14.01,2013-01-06 13:50:00,
2013-01-06 07:55:00,10.1,5.4,30.22,WNW,294,1.0,1.0,81,0.00,,---,0.00,7.00,VWS V14.01,2013-01-06 13:55:00,
2013-01-06 08:00:00,10.0,5.3,30.22,WNW,294,0.0,3.0,81,0.00,,---,0.00,9.00,VWS V14.01,2013-01-06 14:00:00,
2013-01-06 08:05:00,10.0,5.3,30.22,WNW,294,3.0,3.0,81,0.00,,---,0.00,11.00,VWS V14.01,2013-01-06 14:05:00,
2013-01-06 08:10:00,10.1,5.4,30.22,WNW,294,1.0,4.0,81,0.00,,---,0.00,12.00,VWS V14.01,2013-01-06 14:10:00,
2013-01-06 08:15:00,10.1,5.2,30.22,WNW,294,2.0,3.0,80,0.00,,---,0.00,18.00,VWS V14.01,2013-01-06 14:15:00,
2013-01-06 08:20:00,10.3,5.4,30.23,WNW,294,1.0,3.0,80,0.00,,---,0.00,51.00,VWS V14.01,2013-01-06 14:20:00,
2013-01-06 08:25:00,10.7,5.8,30.23,WNW,294,0.0,3.0,80,0.00,,---,0.00,65.00,VWS V14.01,2013-01-06 14:25:00,
2013-01-06 08:30:00,11.3,6.3,30.23,WNW,294,0.0,2.0,80,0.00,,---,0.00,77.00,VWS V14.01,2013-01-06 14:30:00,
2013-01-06 08:35:00,11.9,6.9,30.23,West,277,0.0,4.0,80,0.00,,---,0.00,91.00,VWS V14.01,2013-01-06 14:35:00,
2013-01-06 08:40:00,12.4,7.1,30.23,NW,321,1.0,5.0,79,0.00,,---,0.00,105.00,VWS V14.01,2013-01-06 14:40:00,
2013-01-06 08:45:00,12.9,7.3,30.23,NW,314,0.0,3.0,78,0.00,,---,0.00,120.00,VWS V14.01,2013-01-06 14:45:00,
2013-01-06 08:50:00,13.3,7.4,30.23,NW,313,0.0,1.0,77,0.00,,---,0.00,134.00,VWS V14.01,2013-01-06 14:50:00,
2013-01-06 08:55:00,14.0,8.1,30.22,NW,313,0.0,2.0,77,0.00,,---,0.00,144.00,VWS V14.01,2013-01-06 14:55:00,
2013-01-06 09:00:00,14.8,8.6,30.23,NW,313,0.0,3.0,76,0.00,,---,0.00,155.00,VWS V14.01,2013-01-06 15:00:00,
2013-01-06 09:05:00,15.4,8.9,30.23,West,265,0.0,3.0,75,0.00,,---,0.00,165.00,VWS V14.01,2013-01-06 15:05:00,
2013-01-06 09:10:00,15.7,8.6,30.23,West,266,2.0,3.0,73,0.00,,---,0.00,178.00,VWS V14.01,2013-01-06 15:10:00,
2013-01-06 09:15:00,15.7,8.3,30.23,NW,304,1.0,4.0,72,0.00,,---,0.00,186.00,VWS V14.01,2013-01-06 15:15:00,
2013-01-06 09:20:00,15.7,8.0,30.23,NW,325,3.0,5.0,71,0.00,,---,0.00,197.00,VWS V14.01,2013-01-06 15:20:00,
2013-01-06 09:25:00,15.7,8.3,30.22,NW,323,2.0,4.0,72,0.00,,---,0.00,209.00,VWS V14.01,2013-01-06 15:25:00,
2013-01-06 09:30:00,15.7,8.0,30.23,NW,324,1.0,4.0,71,0.00,,---,0.00,218.00,VWS V14.01,2013-01-06 15:30:00,
2013-01-06 09:35:00,15.8,8.1,30.23,NW,314,1.0,5.0,71,0.00,,---,0.00,229.00,VWS V14.01,2013-01-06 15:35:00,
2013-01-06 09:40:00,16.7,8.9,30.23,NW,314,1.0,2.0,71,0.00,,---,0.00,239.00,VWS V14.01,2013-01-06 15:40:00,
2013-01-06 09:45:00,17.5,9.4,30.23,WNW,298,0.0,2.0,70,0.00,,---,0.00,250.00,VWS V14.01,2013-01-06 15:45:00,
2013-01-06 09:50:00,17.9,9.5,30.23,West,280,1.0,3.0,69,0.00,,---,0.00,262.00,VWS V14.01,2013-01-06 15:50:00,
2013-01-06 10:00:00,18.9,9.8,30.23,West,273,1.0,2.0,67,0.00,,---,0.00,285.00,VWS V14.01,2013-01-06 16:00:00,
2013-01-06 10:10:00,18.8,9.7,30.23,SW,234,0.0,4.0,67,0.00,,---,0.00,301.00,VWS V14.01,2013-01-06 16:10:00,
2013-01-06 10:15:00,19.0,9.9,30.23,SW,233,2.0,5.0,67,0.00,,---,0.00,311.00,VWS V14.01,2013-01-06 16:15:00,
2013-01-06 10:20:00,19.0,9.9,30.24,West,263,2.0,5.0,67,0.00,,---,0.00,322.00,VWS V14.01,2013-01-06 16:20:00,
2013-01-06 10:25:00,18.8,9.7,30.24,West,267,1.0,4.0,67,0.00,,---,0.00,327.00,VWS V14.01,2013-01-06 16:25:00,
2013-01-06 10:30:00,18.9,9.8,30.24,NW,317,6.0,6.0,67,0.00,,---,0.00,332.00,VWS V14.01,2013-01-06 16:30:00,
2013-01-06 10:35:00,19.0,9.9,30.24,West,269,1.0,6.0,67,0.00,,---,0.00,338.00,VWS V14.01,2013-01-06 16:35:00,
2013-01-06 10:40:00,19.5,10.3,30.24,WSW,250,1.0,7.0,67,0.00,,---,0.00,343.00,VWS V14.01,2013-01-06 16:40:00,
2013-01-06 10:45:00,19.5,10.3,30.24,NW,318,2.0,6.0,67,0.00,,---,0.00,350.00,VWS V14.01,2013-01-06 16:45:00,
2013-01-06 10:50:00,19.0,9.9,30.24,NW,326,1.0,5.0,67,0.00,,---,0.00,359.00,VWS V14.01,2013-01-06 16:50:00,
2013-01-06 10:55:00,18.7,9.9,30.24,NNW,337,1.0,5.0,68,0.00,,---,0.00,366.00,VWS V14.01,2013-01-06 16:55:00,
2013-01-06 11:00:00,19.3,10.8,30.24,NW,311,3.0,4.0,69,0.00,,---,0.00,371.00,VWS V14.01,2013-01-06 17:00:00,
2013-01-06 11:10:00,20.5,11.3,30.24,NW,314,1.0,4.0,67,0.00,,---,0.00,383.00,VWS V14.01,2013-01-06 17:10:00,
2013-01-06 11:15:00,21.1,11.5,30.23,NW,314,0.0,2.0,66,0.00,,---,0.00,388.00,VWS V14.01,2013-01-06 17:15:00,
2013-01-06 11:20:00,21.2,11.3,30.23,West,271,1.0,3.0,65,0.00,,---,0.00,396.00,VWS V14.01,2013-01-06 17:20:00,
2013-01-06 11:25:00,21.2,11.3,30.22,West,271,0.0,3.0,65,0.00,,---,0.00,399.00,VWS V14.01,2013-01-06 17:25:00,
2013-01-06 11:30:00,21.5,11.6,30.22,West,271,0.0,4.0,65,0.00,,---,0.00,396.00,VWS V14.01,2013-01-06 17:30:00,
2013-01-06 11:35:00,21.5,11.6,30.22,WSW,242,3.0,3.0,65,0.00,,---,0.00,410.00,VWS V14.01,2013-01-06 17:35:00,
2013-01-06 11:40:00,20.4,10.2,30.22,SW,225,2.0,5.0,64,0.00,,---,0.00,399.00,VWS V14.01,2013-01-06 17:40:00,
2013-01-06 11:45:00,19.7,10.2,30.22,SW,217,0.0,6.0,66,0.00,,---,0.00,390.00,VWS V14.01,2013-01-06 17:45:00,
2013-01-06 11:50:00,20.3,11.1,30.22,WSW,252,0.0,6.0,67,0.00,,---,0.00,425.00,VWS V14.01,2013-01-06 17:50:00,
2013-01-06 11:55:00,21.3,12.1,30.22,WSW,254,1.0,3.0,67,0.00,,---,0.00,434.00,VWS V14.01,2013-01-06 17:55:00,
2013-01-06 12:00:00,21.8,11.9,30.22,SSW,212,10.0,10.0,65,0.00,,---,0.00,387.00,VWS V14.01,2013-01-06 18:00:00,
2013-01-06 12:10:00,19.0,10.5,30.23,WSW,238,3.0,9.0,69,0.00,,---,0.00,427.00,VWS V14.01,2013-01-06 18:10:00,
2013-01-06 12:15:00,19.2,11.0,30.23,WSW,246,7.0,9.0,70,0.00,,---,0.00,424.00,VWS V14.01,2013-01-06 18:15:00,
2013-01-06 12:20:00,19.1,10.9,30.23,WSW,254,4.0,10.0,70,0.00,,---,0.00,422.00,VWS V14.01,2013-01-06 18:20:00,
2013-01-06 12:25:00,19.7,11.5,30.22,SW,225,9.0,9.0,70,0.00,,---,0.00,418.00,VWS V14.01,2013-01-06 18:25:00,
2013-01-06 12:30:00,19.4,11.2,30.23,WSW,251,0.0,10.0,70,0.00,,---,0.00,399.00,VWS V14.01,2013-01-06 18:30:00,
2013-01-06 12:35:00,19.7,11.5,30.22,SW,227,5.0,10.0,70,0.00,,---,0.00,413.00,VWS V14.01,2013-01-06 18:35:00,
2013-01-06 12:40:00,19.8,11.3,30.21,SW,222,5.0,6.0,69,0.00,,---,0.00,411.00,VWS V14.01,2013-01-06 18:40:00,
2013-01-06 12:45:00,20.1,11.6,30.21,WSW,251,3.0,6.0,69,0.00,,---,0.00,410.00,VWS V14.01,2013-01-06 18:45:00,
2013-01-06 12:50:00,20.6,12.1,30.21,WSW,255,5.0,5.0,69,0.00,,---,0.00,406.00,VWS V14.01,2013-01-06 18:50:00,
2013-01-06 12:55:00,21.0,12.1,30.21,SW,236,4.0,6.0,68,0.00,,---,0.00,396.00,VWS V14.01,2013-01-06 18:55:00,
2013-01-06 13:00:00,21.2,12.0,30.21,WSW,253,6.0,7.0,67,0.00,,---,0.00,406.00,VWS V14.01,2013-01-06 19:00:00,
2013-01-06 13:05:00,21.5,12.3,30.21,WSW,239,6.0,7.0,67,0.00,,---,0.00,403.00,VWS V14.01,2013-01-06 19:05:00,
2013-01-06 13:10:00,21.7,12.4,30.21,West,259,4.0,9.0,67,0.00,,---,0.00,376.00,VWS V14.01,2013-01-06 19:10:00,
2013-01-06 13:15:00,22.1,12.8,30.20,West,259,0.0,4.0,67,0.00,,---,0.00,399.00,VWS V14.01,2013-01-06 19:15:00,
2013-01-06 13:20:00,23.1,13.8,30.20,WSW,253,3.0,5.0,67,0.00,,---,0.00,394.00,VWS V14.01,2013-01-06 19:20:00,
2013-01-06 13:25:00,24.5,14.8,30.20,WSW,253,0.0,3.0,66,0.00,,---,0.00,383.00,VWS V14.01,2013-01-06 19:25:00,
2013-01-06 13:30:00,25.1,14.3,30.19,WSW,253,3.0,3.0,63,0.00,,---,0.00,380.00,VWS V14.01,2013-01-06 19:30:00,
2013-01-06 13:35:00,24.9,13.4,30.20,SW,225,1.0,6.0,61,0.00,,---,0.00,376.00,VWS V14.01,2013-01-06 19:35:00,
2013-01-06 13:40:00,24.1,12.6,30.20,SW,234,4.0,6.0,61,0.00,,---,0.00,376.00,VWS V14.01,2013-01-06 19:40:00,
2013-01-06 13:45:00,23.6,12.9,30.20,West,262,1.0,6.0,63,0.00,,---,0.00,371.00,VWS V14.01,2013-01-06 19:45:00,
2013-01-06 13:50:00,23.3,12.2,30.20,WSW,243,7.0,9.0,62,0.00,,---,0.00,360.00,VWS V14.01,2013-01-06 19:50:00,
2013-01-06 13:55:00,22.9,12.6,30.20,WSW,246,5.0,7.0,64,0.00,,---,0.00,348.00,VWS V14.01,2013-01-06 19:55:00,
2013-01-06 14:05:00,23.6,12.5,30.20,WSW,245,1.0,6.0,62,0.00,,---,0.00,332.00,VWS V14.01,2013-01-06 20:05:00,
2013-01-06 14:15:00,24.2,13.4,30.20,WSW,237,5.0,5.0,63,0.00,,---,0.00,322.00,VWS V14.01,2013-01-06 20:15:00,
2013-01-06 14:20:00,23.9,12.8,30.21,West,261,3.0,5.0,62,0.00,,---,0.00,278.00,VWS V14.01,2013-01-06 20:20:00,
2013-01-06 14:25:00,23.9,12.8,30.21,SW,219,2.0,5.0,62,0.00,,---,0.00,290.00,VWS V14.01,2013-01-06 20:25:00,
2013-01-06 14:30:00,24.3,13.2,30.21,WSW,244,1.0,5.0,62,0.00,,---,0.00,295.00,VWS V14.01,2013-01-06 20:30:00,
2013-01-06 14:35:00,24.6,13.8,30.21,West,261,1.0,4.0,63,0.00,,---,0.00,283.00,VWS V14.01,2013-01-06 20:35:00,
2013-01-06 14:40:00,24.9,13.7,30.21,WSW,252,0.0,5.0,62,0.00,,---,0.00,262.00,VWS V14.01,2013-01-06 20:40:00,
2013-01-06 14:45:00,25.3,13.8,30.21,WSW,257,3.0,4.0,61,0.00,,---,0.00,253.00,VWS V14.01,2013-01-06 20:45:00,
2013-01-06 14:50:00,25.8,14.2,30.20,WSW,257,1.0,3.0,61,0.00,,---,0.00,257.00,VWS V14.01,2013-01-06 20:50:00,
2013-01-06 14:55:00,25.8,13.9,30.21,West,263,0.0,3.0,60,0.00,,---,0.00,244.00,VWS V14.01,2013-01-06 20:55:00,
2013-01-06 15:00:00,25.8,13.9,30.21,West,265,0.0,3.0,60,0.00,,---,0.00,232.00,VWS V14.01,2013-01-06 21:00:00,
2013-01-06 15:10:00,25.8,14.2,30.20,WSW,252,0.0,2.0,61,0.00,,---,0.00,206.00,VWS V14.01,2013-01-06 21:10:00,
2013-01-06 15:15:00,26.1,14.1,30.21,WSW,254,0.0,5.0,60,0.00,,---,0.00,216.00,VWS V14.01,2013-01-06 21:15:00,
2013-01-06 15:20:00,26.2,14.2,30.21,WSW,250,0.0,6.0,60,0.00,,---,0.00,202.00,VWS V14.01,2013-01-06 21:20:00,
2013-01-06 15:25:00,26.0,13.6,30.21,WSW,243,0.0,5.0,59,0.00,,---,0.00,186.00,VWS V14.01,2013-01-06 21:25:00,
2013-01-06 15:30:00,26.0,14.4,30.20,WSW,243,0.0,1.0,61,0.00,,---,0.00,179.00,VWS V14.01,2013-01-06 21:30:00,
2013-01-06 15:40:00,24.8,12.5,30.20,SW,232,0.0,4.0,59,0.00,,---,0.00,51.00,VWS V14.01,2013-01-06 21:40:00,
2013-01-06 15:45:00,24.2,12.7,30.20,SW,232,0.0,3.0,61,0.00,,---,0.00,42.00,VWS V14.01,2013-01-06 21:45:00,
2013-01-06 15:50:00,23.4,12.3,30.20,SW,232,1.0,3.0,62,0.00,,---,0.00,84.00,VWS V14.01,2013-01-06 21:50:00,
2013-01-06 15:55:00,23.1,12.4,30.20,SW,227,4.0,4.0,63,0.00,,---,0.00,93.00,VWS V14.01,2013-01-06 21:55:00,
2013-01-06 16:00:00,23.0,12.3,30.21,WSW,250,1.0,6.0,63,0.00,,---,0.00,84.00,VWS V14.01,2013-01-06 22:00:00,
2013-01-06 16:05:00,23.3,12.2,30.21,WSW,239,4.0,5.0,62,0.00,,---,0.00,77.00,VWS V14.01,2013-01-06 22:05:00,
2013-01-06 16:10:00,23.1,10.9,30.21,WSW,254,6.0,11.0,59,0.00,,---,0.00,67.00,VWS V14.01,2013-01-06 22:10:00,
2013-01-06 16:15:00,22.7,10.5,30.21,SW,217,3.0,11.0,59,0.00,,---,0.00,62.00,VWS V14.01,2013-01-06 22:15:00,
2013-01-06 16:20:00,22.6,10.8,30.21,SW,224,1.0,7.0,60,0.00,,---,0.00,60.00,VWS V14.01,2013-01-06 22:20:00,
2013-01-06 16:25:00,22.3,11.3,30.20,SSW,207,5.0,7.0,62,0.00,,---,0.00,33.00,VWS V14.01,2013-01-06 22:25:00,
2013-01-06 16:30:00,21.9,11.2,30.21,SW,231,3.0,5.0,63,0.00,,---,0.00,23.00,VWS V14.01,2013-01-06 22:30:00,
2013-01-06 16:35:00,21.6,11.0,30.21,SW,221,3.0,6.0,63,0.00,,---,0.00,16.00,VWS V14.01,2013-01-06 22:35:00,
2013-01-06 16:40:00,21.1,10.5,30.20,SW,223,3.0,6.0,63,0.00,,---,0.00,11.00,VWS V14.01,2013-01-06 22:40:00,
2013-01-06 16:45:00,20.8,10.6,30.20,SW,218,3.0,5.0,64,0.00,,---,0.00,7.00,VWS V14.01,2013-01-06 22:45:00,
2013-01-06 16:50:00,20.5,10.6,30.20,SW,217,2.0,4.0,65,0.00,,---,0.00,5.00,VWS V14.01,2013-01-06 22:50:00,
2013-01-06 16:55:00,20.2,10.7,30.19,SW,217,2.0,4.0,66,0.00,,---,0.00,0.00,VWS V14.01,2013-01-06 22:55:00,
2013-01-06 17:00:00,20.0,10.5,30.20,SW,218,4.0,4.0,66,0.00,,---,0.00,0.00,VWS V14.01,2013-01-06 23:00:00,
2013-01-06 17:05:00,19.8,10.6,30.20,SW,219,4.0,5.0,67,0.00,,---,0.00,0.00,VWS V14.01,2013-01-06 23:05:00,
2013-01-06 17:10:00,19.7,10.5,30.20,SW,219,2.0,4.0,67,0.00,,---,0.00,0.00,VWS V14.01,2013-01-06 23:10:00,
2013-01-06 17:15:00,19.4,10.6,30.20,SW,219,4.0,4.0,68,0.00,,---,0.00,0.00,VWS V14.01,2013-01-06 23:15:00,
2013-01-06 17:20:00,19.3,10.8,30.20,SW,217,1.0,4.0,69,0.00,,---,0.00,0.00,VWS V14.01,2013-01-06 23:20:00,
2013-01-06 17:25:00,19.0,10.5,30.20,SW,217,1.0,3.0,69,0.00,,---,0.00,0.00,VWS V14.01,2013-01-06 23:25:00,
2013-01-06 17:30:00,18.9,10.4,30.20,SW,217,1.0,1.0,69,0.00,,---,0.00,0.00,VWS V14.01,2013-01-06 23:30:00,
2013-01-06 17:35:00,18.7,10.6,30.20,SW,217,1.0,2.0,70,0.00,,---,0.00,0.00,VWS V14.01,2013-01-06 23:35:00,
2013-01-06 17:40:00,18.6,10.5,30.20,SW,215,1.0,4.0,70,0.00,,---,0.00,0.00,VWS V14.01,2013-01-06 23:40:00,
2013-01-06 17:45:00,18.4,10.3,30.20,SW,215,3.0,4.0,70,0.00,,---,0.00,0.00,VWS V14.01,2013-01-06 23:45:00,
2013-01-06 17:55:00,18.2,10.1,30.20,SW,214,3.0,3.0,70,0.00,,---,0.00,0.00,VWS V14.01,2013-01-06 23:55:00,
2013-01-06 18:00:00,18.0,9.9,30.20,SSW,211,2.0,5.0,70,0.00,,---,0.00,0.00,VWS V14.01,2013-01-07 00:00:00,
2013-01-06 18:05:00,17.8,10.0,30.20,SSW,203,2.0,5.0,71,0.00,,---,0.00,0.00,VWS V14.01,2013-01-07 00:05:00,
2013-01-06 18:15:00,17.6,10.1,30.20,South,187,0.0,3.0,72,0.00,,---,0.00,0.00,VWS V14.01,2013-01-07 00:15:00,
2013-01-06 18:20:00,17.5,10.0,30.20,South,187,2.0,2.0,72,0.00,,---,0.00,0.00,VWS V14.01,2013-01-07 00:20:00,
2013-01-06 18:25:00,17.3,9.8,30.20,South,187,0.0,3.0,72,0.00,,---,0.00,0.00,VWS V14.01,2013-01-07 00:25:00,
2013-01-06 18:30:00,17.2,10.1,30.20,South,187,4.0,4.0,73,0.00,,---,0.00,0.00,VWS V14.01,2013-01-07 00:30:00,
2013-01-06 18:40:00,16.9,10.1,30.20,SSW,211,3.0,6.0,74,0.00,,---,0.00,0.00,VWS V14.01,2013-01-07 00:40:00,
2013-01-06 18:45:00,16.9,10.4,30.21,SW,223,3.0,5.0,75,0.00,,---,0.00,0.00,VWS V14.01,2013-01-07 00:45:00,
2013-01-06 18:50:00,17.0,10.5,30.20,SSE,153,3.0,5.0,75,0.00,,---,0.00,0.00,VWS V14.01,2013-01-07 00:50:00,
2013-01-06 19:00:00,16.8,10.6,30.20,South,173,0.0,4.0,76,0.00,,---,0.00,0.00,VWS V14.01,2013-01-07 01:00:00,
2013-01-06 19:05:00,16.7,10.5,30.20,SSW,205,2.0,3.0,76,0.00,,---,0.00,0.00,VWS V14.01,2013-01-07 01:05:00,
2013-01-06 19:10:00,16.7,10.8,30.20,SSW,198,2.0,10.0,77,0.00,,---,0.00,0.00,VWS V14.01,2013-01-07 01:10:00,
2013-01-06 19:15:00,16.6,10.7,30.20,South,182,1.0,7.0,77,0.00,,---,0.00,0.00,VWS V14.01,2013-01-07 01:15:00,
2013-01-06 19:25:00,16.3,10.4,30.20,SSW,202,0.0,4.0,77,0.00,,---,0.00,0.00,VWS V14.01,2013-01-07 01:25:00,
2013-01-06 19:35:00,16.0,10.4,30.20,SSW,202,0.0,2.0,78,0.00,,---,0.00,0.00,VWS V14.01,2013-01-07 01:35:00,
2013-01-06 19:40:00,15.8,10.5,30.19,SSE,149,1.0,3.0,79,0.00,,---,0.00,0.00,VWS V14.01,2013-01-07 01:40:00,
2013-01-06 19:45:00,15.8,10.5,30.19,SSE,152,1.0,3.0,79,0.00,,---,0.00,0.00,VWS V14.01,2013-01-07 01:45:00,
2013-01-06 19:50:00,15.9,10.6,30.19,South,178,0.0,5.0,79,0.00,,---,0.00,0.00,VWS V14.01,2013-01-07 01:50:00,
2013-01-06 19:55:00,15.9,10.8,30.19,SE,135,1.0,3.0,80,0.00,,---,0.00,0.00,VWS V14.01,2013-01-07 01:55:00,
2013-01-06 20:00:00,15.9,10.8,30.18,SE,140,1.0,4.0,80,0.00,,---,0.00,0.00,VWS V14.01,2013-01-07 02:00:00,
2013-01-06 20:05:00,16.0,10.9,30.17,SSW,203,2.0,6.0,80,0.00,,---,0.00,0.00,VWS V14.01,2013-01-07 02:05:00,
2013-01-06 20:10:00,15.9,10.8,30.17,South,180,2.0,4.0,80,0.00,,---,0.00,0.00,VWS V14.01,2013-01-07 02:10:00,
2013-01-06 20:15:00,15.9,10.8,30.16,SE,128,2.0,5.0,80,0.00,,---,0.00,0.00,VWS V14.01,2013-01-07 02:15:00,
2013-01-06 20:20:00,15.9,10.8,30.16,SSE,148,0.0,5.0,80,0.00,,---,0.00,0.00,VWS V14.01,2013-01-07 02:20:00,
2013-01-06 20:25:00,15.8,10.7,30.16,SE,138,3.0,6.0,80,0.00,,---,0.00,0.00,VWS V14.01,2013-01-07 02:25:00,
2013-01-06 20:30:00,15.8,10.7,30.16,SSE,155,2.0,9.0,80,0.00,,---,0.00,0.00,VWS V14.01,2013-01-07 02:30:00,
2013-01-06 20:40:00,15.8,10.7,30.14,SE,137,1.0,8.0,80,0.00,,---,0.00,0.00,VWS V14.01,2013-01-07 02:40:00,
2013-01-06 20:45:00,15.8,10.7,30.14,SE,140,2.0,5.0,80,0.00,,---,0.00,0.00,VWS V14.01,2013-01-07 02:45:00,
2013-01-06 20:50:00,15.9,10.8,30.13,SSE,168,2.0,7.0,80,0.00,,---,0.00,0.00,VWS V14.01,2013-01-07 02:50:00,
2013-01-06 20:55:00,16.1,11.0,30.13,SSE,148,2.0,6.0,80,0.00,,---,0.00,0.00,VWS V14.01,2013-01-07 02:55:00,
2013-01-06 21:05:00,16.2,11.1,30.12,South,176,3.0,7.0,80,0.00,,---,0.00,0.00,VWS V14.01,2013-01-07 03:05:00,
2013-01-06 21:10:00,16.3,11.2,30.12,SSE,167,2.0,5.0,80,0.00,,---,0.00,0.00,VWS V14.01,2013-01-07 03:10:00,
2013-01-06 21:15:00,16.3,11.2,30.12,SSE,153,1.0,5.0,80,0.00,,---,0.00,0.00,VWS V14.01,2013-01-07 03:15:00,
2013-01-06 21:20:00,16.2,11.1,30.11,SE,130,6.0,6.0,80,0.00,,---,0.00,0.00,VWS V14.01,2013-01-07 03:20:00,
2013-01-06 21:25:00,16.2,11.1,30.11,SSE,155,1.0,8.0,80,0.00,,---,0.00,0.00,VWS V14.01,2013-01-07 03:25:00,
2013-01-06 21:35:00,16.2,11.4,30.10,SSE,150,2.0,6.0,81,0.00,,---,0.00,0.00,VWS V14.01,2013-01-07 03:35:00,
2013-01-06 21:45:00,16.2,11.4,30.10,SE,133,5.0,6.0,81,0.00,,---,0.00,0.00,VWS V14.01,2013-01-07 03:45:00,
2013-01-06 21:50:00,16.2,11.4,30.10,ESE,116,5.0,7.0,81,0.00,,---,0.00,0.00,VWS V14.01,2013-01-07 03:50:00,
2013-01-06 21:55:00,16.1,11.3,30.10,SSE,167,1.0,6.0,81,0.00,,---,0.00,0.00,VWS V14.01,2013-01-07 03:55:00,
2013-01-06 22:05:00,16.0,11.5,30.09,SE,135,1.0,9.0,82,0.00,,---,0.00,0.00,VWS V14.01,2013-01-07 04:05:00,
2013-01-06 22:10:00,16.0,11.5,30.09,ESE,119,5.0,9.0,82,0.00,,---,0.00,0.00,VWS V14.01,2013-01-07 04:10:00,
2013-01-06 22:15:00,16.0,11.5,30.08,SSE,165,2.0,6.0,82,0.00,,---,0.00,0.00,VWS V14.01,2013-01-07 04:15:00,
2013-01-06 22:25:00,16.0,11.5,30.08,ESE,123,4.0,6.0,82,0.00,,---,0.00,0.00,VWS V14.01,2013-01-07 04:25:00,
2013-01-06 22:30:00,16.0,11.8,30.08,ESE,120,6.0,6.0,83,0.00,,---,0.00,0.00,VWS V14.01,2013-01-07 04:30:00,
2013-01-06 22:35:00,16.0,11.8,30.08,SE,140,1.0,6.0,83,0.00,,---,0.00,0.00,VWS V14.01,2013-01-07 04:35:00,
2013-01-06 22:45:00,16.1,11.9,30.07,SE,126,2.0,5.0,83,0.00,,---,0.00,0.00,VWS V14.01,2013-01-07 04:45:00,
2013-01-06 22:50:00,16.1,11.9,30.06,SE,132,4.0,6.0,83,0.00,,---,0.00,0.00,VWS V14.01,2013-01-07 04:50:00,
2013-01-06 22:55:00,16.0,11.8,30.07,SSE,152,3.0,5.0,83,0.00,,---,0.00,0.00,VWS V14.01,2013-01-07 04:55:00,
2013-01-06 23:05:00,16.2,12.0,30.06,ESE,123,3.0,12.0,83,0.00,,---,0.00,0.00,VWS V14.01,2013-01-07 05:05:00,
2013-01-06 23:10:00,16.1,11.9,30.06,SSE,150,3.0,9.0,83,0.00,,---,0.00,0.00,VWS V14.01,2013-01-07 05:10:00,
2013-01-06 23:15:00,16.1,11.9,30.06,ESE,123,4.0,7.0,83,0.00,,---,0.00,0.00,VWS V14.01,2013-01-07 05:15:00,
2013-01-06 23:25:00,16.1,11.9,30.05,ESE,123,2.0,9.0,83,0.00,,---,0.00,0.00,VWS V14.01,2013-01-07 05:25:00,
2013-01-06 23:30:00,16.3,12.1,30.05,SSE,159,2.0,10.0,83,0.00,,---,0.00,0.00,VWS V14.01,2013-01-07 05:30:00,
2013-01-06 23:35:00,16.3,12.1,30.04,SSE,161,7.0,10.0,83,0.00,,---,0.00,0.00,VWS V14.01,2013-01-07 05:35:00,
2013-01-06 23:40:00,16.5,12.0,30.04,ESE,123,3.0,10.0,82,0.00,,---,0.00,0.00,VWS V14.01,2013-01-07 05:40:00,
2013-01-06 23:45:00,16.7,12.2,30.03,SSE,149,2.0,9.0,82,0.00,,---,0.00,0.00,VWS V14.01,2013-01-07 05:45:00,
2013-01-06 23:50:00,16.8,12.5,30.03,South,183,6.0,9.0,83,0.00,,---,0.00,0.00,VWS V14.01,2013-01-07 05:50:00,
2013-01-06 23:55:00,16.9,12.6,30.02,SE,131,4.0,6.0,83,0.00,,---,0.00,0.00,VWS V14.01,2013-01-07 05:55:00,